www.pogodaiklimat.ru

Погода и климат >> Архив погоды >> Австралия >> Южная Австралия >> Мумба


ПОГОДА в Мумбе

  • Прогноз погоды в Мумбе
  • Монитор погоды в Мумбе

АРХИВ ПОГОДЫ в Мумбе

Время (UTC), дата Ветер
(напр.,м/с)
 
Видим.   Явления Облачность Т
(С)
Тd
(С)
f
(%)
Тe
(С)
Тes
(С)
Комфортность P
(гПа)
Po
(гПа)
Тmin
(С)
Tmax
(С)
R
(мм)
R24
(мм)
S
(см)
01 17.03 ЮВ 5 н/о н/о +32.7 +6.1 19 +31 +31 жарко 1013.4 1009.0 +19.3
02 17.03 Ю 5 н/о н/о +33.4 +6.6 19 +31 +31 жарко 1012.6 1008.2
03 17.03 ЮВ 5 н/о н/о +33.9 +4.6 16 +31 +31 жарко 1012.1 1007.7
04 17.03 Ю 7 н/о н/о +34.0 +3.7 15 +31 +31 жарко 1011.5 1007.1
05 17.03 Ю 5 н/о н/о +34.8 +3.4 14 +32 +32 жарко 1010.8 1006.4
06 17.03 ЮЗ 6 н/о н/о +35.0 +2.5 13 +32 +32 жарко 1010.3 1005.9
07 17.03 Ю 6 н/о н/о +34.2 +3.9 15 +31 +31 жарко 1010.5 1006.1
08 17.03 Ю 7 н/о н/о +33.7 +3.5 15 +31 +31 жарко 1010.8 1006.4
09 17.03 Ю 5 н/о н/о +32.2 +4.1 17 +30 +30 жарко 1011.3 1006.9
10 17.03 Ю 3 н/о н/о +29.9 +3.0 18 +28 +28 жарко 1012.0 1007.6
11 17.03 ЮЗ 4 н/о н/о +28.3 +3.2 20 +27 +27 жарко 1012.7 1008.3
12 17.03 Ю 3 н/о н/о +27.7 +3.4 21 +26 +26 жарко 1013.1 1008.7
13 17.03 Ю 5 н/о н/о +28.7 +3.5 20 +27 +27 жарко 1012.7 1008.3 +35.7
14 17.03 Ю 3 н/о н/о +26.6 +3.2 22 +25 +25 комфорт 1012.5 1008.1
15 17.03 Ю 5 н/о н/о +26.9 +4.0 23 +26 +26 жарко 1012.2 1007.8
16 17.03 Ю 5 н/о н/о +27.1 +4.8 24 +26 +26 жарко 1011.7 1007.3
17 17.03 Ю 4 н/о н/о +26.0 +5.6 27 +25 +25 комфорт 1011.5 1007.1
18 17.03 ЮВ 4 н/о н/о +25.6 +5.8 28 +25 +25 комфорт 1011.3 1006.9
19 17.03 Ю 3 н/о 6/0
[]
+24.7 +6.0 30 +25 +25 комфорт 1011.9 1007.5
20 17.03 Ю 2 н/о н/о +22.1 +4.7 32 +22 +22 комфорт 1012.5 1008.1
21 17.03 Ю 3 н/о н/о +22.6 +6.0 34 +23 +23 комфорт 1012.8 1008.4
22 17.03 ЮВ 5 н/о н/о +25.5 +6.7 30 +25 +25 комфорт 1013.4 1009.0
23 17.03 ЮВ 5 н/о н/о +29.0 +8.1 27 +28 +28 жарко 1013.8 1009.4
00 18.03 В 5 н/о н/о +31.8 +8.7 24 +31 +31 жарко 1013.8 1009.4
01 18.03 В 5 н/о н/о +34.1 +9.4 22 +33 +33 жарко 1013.4 1009.0
02 18.03 ЮВ 6 н/о н/о +34.7 +7.7 19 +33 +33 жарко 1012.7 1008.3
03 18.03 ЮВ 6 н/о н/о +35.3 +8.2 19 +34 +34 очень
жарко
1011.9 1007.5
04 18.03 ЮВ 4 н/о 3/0
[]
+35.2 +7.3 18 +33 +33 жарко 1011.0 1006.6
05 18.03 Ю 4 н/о н/о +36.8 +5.9 15 +34 +34 очень
жарко
1010.1 1005.7
06 18.03 Ю 5 н/о н/о +36.6 +6.7 16 +34 +34 очень
жарко
1009.5 1005.1
07 18.03 ЮВ 5 н/о н/о +35.6 +5.9 16 +33 +33 жарко 1009.3 1004.9
08 18.03 Ю 6 н/о н/о +35.4 +5.8 16 +33 +33 жарко 1009.4 1005.0
09 18.03 ЮВ 4 н/о н/о +34.3 +5.8 17 +32 +32 жарко 1009.5 1005.1
10 18.03 Ю 4 н/о н/о +32.7 +5.3 18 +30 +30 жарко 1010.4 1006.0
11 18.03 Ю 4 н/о н/о +31.4 +5.8 20 +30 +30 жарко 1011.2 1006.8
12 18.03 Ю 4 н/о н/о +29.2 +4.6 21 +28 +28 жарко 1011.8 1007.4
13 18.03 Ю 4 н/о н/о +28.3 +4.6 22 +27 +27 жарко 1011.9 1007.5
14 18.03 Ю 4 н/о н/о +28.1 +4.4 22 +27 +27 жарко 1011.7 1007.3
15 18.03 ЮВ 5 н/о н/о +27.8 +4.8 23 +27 +27 жарко 1011.1 1006.7
16 18.03 ЮВ 5 н/о н/о +26.9 +4.0 23 +26 +26 жарко 1010.8 1006.4
17 18.03 ЮВ 3 н/о н/о +25.1 +4.3 26 +24 +24 комфорт 1010.6 1006.2
18 18.03 ЮВ 4 н/о н/о +25.5 +4.0 25 +25 +25 комфорт 1010.7 1006.3
19 18.03 ЮВ 4 н/о н/о +25.0 +4.2 26 +24 +24 комфорт 1011.1 1006.7
20 18.03 ЮВ 4 н/о н/о +23.6 +4.0 28 +23 +23 комфорт 1011.6 1007.2
21 18.03 В 4 н/о н/о +23.1 +4.1 29 +23 +23 комфорт 1012.0 1007.6
22 18.03 В 4 н/о н/о +25.1 +4.8 27 +25 +25 комфорт 1012.7 1008.3
23 18.03 В 6 н/о н/о +30.4 +6.3 22 +29 +29 жарко 1013.1 1008.7
00 19.03 В 6 н/о н/о +33.4 +7.4 20 +32 +32 жарко 1013.2 1008.8
01 19.03 В 5 н/о н/о +34.8 +7.0 18 +33 +33 жарко 1012.9 1008.5 +22.9
02 19.03 ЮВ 4 н/о н/о +34.9 +5.4 16 +32 +32 жарко 1012.2 1007.8
03 19.03 Ю 5 н/о н/о +36.0 +5.3 15 +33 +33 жарко 1011.1 1006.7
04 19.03 Ю 5 н/о н/о +36.4 +3.6 13 +33 +33 жарко 1010.2 1005.8
05 19.03 Ю 4 н/о н/о +36.8 +3.9 13 +34 +34 очень
жарко
1009.6 1005.2
06 19.03 Ю 4 н/о н/о +36.7 +3.8 13 +34 +34 очень
жарко
1009.0 1004.6
07 19.03 Ю 4 н/о н/о +36.7 +2.7 12 +33 +33 жарко 1008.9 1004.5
08 19.03 Ю 5 н/о н/о +36.1 +3.3 13 +33 +33 жарко 1009.0 1004.6
09 19.03 Ю 5 н/о н/о +34.6 +2.2 13 +31 +31 жарко 1009.4 1005.0
10 19.03 Ю 4 н/о н/о +32.8 +2.8 15 +30 +30 жарко 1010.1 1005.7
11 19.03 Ю 3 н/о н/о +31.4 +2.6 16 +29 +29 жарко 1011.0 1006.6
12 19.03 Ю 3 н/о н/о +29.4 +2.6 18 +27 +27 жарко 1011.4 1007.0
13 19.03 Ю 4 н/о н/о +29.4 +3.4 19 +27 +27 жарко 1011.3 1006.9 +37.5
14 19.03 Ю 2 н/о н/о +27.3 +2.4 20 +26 +26 жарко 1011.1 1006.7
15 19.03 штиль 0 н/о н/о +26.6 +2.5 21 +25 +25 комфорт 1010.7 1006.3
16 19.03 Ю 2 н/о н/о +25.4 +2.8 23 +24 +24 комфорт 1010.3 1005.9
17 19.03 ЮВ 2 н/о н/о +23.9 +1.5 23 +23 +23 комфорт 1009.9 1005.5
18 19.03 ЮВ 2 н/о н/о +24.2 +2.4 24 +23 +23 комфорт 1009.8 1005.4
19 19.03 В 2 н/о н/о +23.3 +2.2 25 +23 +23 комфорт 1010.1 1005.7
20 19.03 В 3 н/о н/о +23.0 +2.5 26 +23 +23 комфорт 1010.7 1006.3
21 19.03 В 2 н/о н/о +22.8 +2.3 26 +22 +22 комфорт 1011.3 1006.9
22 19.03 В 2 н/о н/о +26.2 +2.8 22 +25 +25 комфорт 1011.9 1007.5
23 19.03 В 4 н/о н/о +30.1 +3.2 18 +28 +28 жарко 1012.6 1008.2
00 20.03 В 5 н/о н/о +33.7 +3.5 15 +31 +31 жарко 1013.0 1008.6
01 20.03 В 5 н/о н/о +35.9 +3.2 13 +33 +33 жарко 1012.7 1008.3 +22.6
02 20.03 В 3 н/о н/о +36.7 +2.7 12 +33 +33 жарко 1012.1 1007.7
03 20.03 ЮВ 6 н/о н/о +38.1 +2.5 11 +35 +35 очень
жарко
1011.0 1006.6
04 20.03 Ю 4 н/о н/о +37.8 +2.3 11 +34 +34 очень
жарко
1009.9 1005.5
05 20.03 ЮЗ 5 н/о н/о +38.3 +2.7 11 +35 +35 очень
жарко
1009.1 1004.7
06 20.03 ЮВ 3 н/о н/о +38.2 +1.3 10 +35 +35 очень
жарко
1008.7 1004.3
07 20.03 Ю 6 н/о н/о +37.5 +2.1 11 +34 +34 очень
жарко
1008.3 1003.9
08 20.03 ЮВ 4 н/о н/о +37.1 +3.0 12 +34 +34 очень
жарко
1008.5 1004.1
09 20.03 Ю 3 н/о н/о +35.7 +3.0 13 +33 +33 жарко 1008.9 1004.5
10 20.03 ЮВ 2 н/о н/о +33.2 +3.1 15 +30 +30 жарко 1009.4 1005.0
11 20.03 Ю 2 н/о н/о +31.2 +2.4 16 +29 +29 жарко 1010.1 1005.7
12 20.03 Ю 3 н/о н/о +30.9 +3.0 17 +28 +28 жарко 1010.8 1006.4
13 20.03 ЮВ 2 н/о н/о +29.7 +2.9 18 +28 +28 жарко 1010.9 1006.5 +38.8
14 20.03 ЮВ 2 н/о н/о +28.3 +2.5 19 +26 +26 жарко 1010.7 1006.3
15 20.03 В 3 н/о н/о +26.2 +1.5 20 +25 +25 комфорт 1010.3 1005.9
16 20.03 В 2 н/о н/о +24.7 +0.9 21 +23 +23 комфорт 1009.8 1005.4
17 20.03 В 2 н/о н/о +25.3 +2.1 22 +24 +24 комфорт 1009.4 1005.0
18 20.03 В 3 н/о н/о +23.5 +1.2 23 +23 +23 комфорт 1009.3 1004.9
19 20.03 В 3 н/о н/о +22.9 +1.3 24 +22 +22 комфорт 1009.5 1005.1
20 20.03 ЮЗ 3 н/о н/о +22.6 +0.4 23 +22 +22 комфорт 1010.2 1005.8
21 20.03 штиль 0 н/о н/о +22.3 +0.8 24 +22 +22 комфорт 1010.7 1006.3
22 20.03 Ю 4 н/о н/о +26.5 +1.7 20 +25 +25 комфорт 1011.6 1007.2
23 20.03 Ю 4 н/о н/о +30.7 +2.0 16 +28 +28 жарко 1012.0 1007.6
00 21.03 В 3 н/о н/о +33.8 +1.6 13 +31 +31 жарко 1012.3 1007.9
01 21.03 СВ 4 н/о н/о +35.5 +1.8 12 +32 +32 жарко 1011.9 1007.5 +21.6
02 21.03 СВ 4 н/о н/о +37.4 +0.7 10 +34 +34 очень
жарко
1011.0 1006.6
03 21.03 ЮВ 4 н/о н/о +37.8 +1.0 10 +34 +34 очень
жарко
1010.1 1005.7
04 21.03 В 3 н/о н/о +38.4 +1.4 10 +35 +35 очень
жарко
1009.3 1004.9
05 21.03 В 3 н/о н/о +39.1 +1.9 10 +36 +36 очень
жарко
1008.5 1004.1
06 21.03 Ю 2 н/о н/о +38.6 +1.6 10 +35 +35 очень
жарко
1008.1 1003.7
07 21.03 С 2 н/о н/о +38.4 +1.4 10 +35 +35 очень
жарко
1007.8 1003.4
08 21.03 ЮВ 4 н/о н/о +37.8 +1.0 10 +34 +34 очень
жарко
1008.2 1003.8
09 21.03 ЮВ 2 н/о н/о +36.2 +1.1 11 +33 +33 жарко 1008.3 1003.9
10 21.03 ЮВ 2 н/о н/о +34.6 +1.1 12 +31 +31 жарко 1009.0 1004.6
11 21.03 Ю 2 н/о н/о +32.3 +1.4 14 +29 +29 жарко 1009.3 1004.9
12 21.03 штиль 0 н/о н/о +30.0 +0.6 15 +27 +27 жарко 1009.6 1005.2
13 21.03 ЮЗ 2 н/о н/о +28.2 0.0 16 +26 +26 жарко 1010.1 1005.7 +40.0
14 21.03 В 2 н/о н/о +26.6 -0.4 17 +25 +25 комфорт 1009.5 1005.1
15 21.03 В 2 н/о н/о +26.8 +1.3 19 +25 +25 комфорт 1009.3 1004.9
16 21.03 штиль 0 н/о н/о +25.5 -0.5 18 +24 +24 комфорт 1008.8 1004.4
17 21.03 ЮЗ 4 н/о н/о +24.8 -0.4 19 +23 +23 комфорт 1008.2 1003.8
18 21.03 ЮЗ 2 н/о н/о +24.6 +0.2 20 +23 +23 комфорт 1008.3 1003.9
22 21.03 Ю 1 5000 м н/о +25.9 +1.2 20 +24 +24 комфорт 1009.9 1005.5
23 21.03 Ю 1 н/о н/о +31.5 +1.8 15 +29 +29 жарко 1010.2 1005.8
01 22.03 В 2 н/о н/о +37.2 +0.5 10 +34 +34 очень
жарко
1010.1 1005.7 +21.6
02 22.03 СВ 4 н/о н/о +39.0 +0.4 9 +35 +35 очень
жарко
1009.6 1005.2
03 22.03 СВ 3 н/о н/о +39.9 +1.1 9 +36 +36 очень
жарко
1008.6 1004.2
04 22.03 З 7 н/о н/о +40.1 +1.2 9 +36 +36 очень
жарко
1007.4 1003.0
05 22.03 ЮЗ 3 н/о н/о +40.5 -0.1 8 +37 +37 очень
жарко
1006.6 1002.2
06 22.03 СЗ 5 н/о н/о +39.8 -0.6 8 +36 +36 очень
жарко
1006.0 1001.6
07 22.03 СЗ 4 н/о н/о +39.9 -0.5 8 +36 +36 очень
жарко
1006.1 1001.7
08 22.03 СЗ 4 н/о н/о +38.9 +0.3 9 +35 +35 очень
жарко
1006.5 1002.1
09 22.03 З 2 н/о н/о +36.7 +0.1 10 +33 +33 жарко 1006.8 1002.4
10 22.03 З 1 н/о н/о +34.0 -1.9 10 +30 +30 жарко 1007.4 1003.0
11 22.03 Ю 2 н/о н/о +32.3 -0.7 12 +29 +29 жарко 1007.9 1003.5
12 22.03 штиль 0 н/о н/о +30.8 -3.0 11 +27 +27 жарко 1008.3 1003.9
13 22.03 штиль 0 н/о н/о +29.5 -0.8 14 +27 +27 жарко 1008.3 1003.9 +40.9
14 22.03 З 3 н/о н/о +28.0 -1.0 15 +25 +25 комфорт 1008.5 1004.1
15 22.03 Ю 3 н/о н/о +27.5 +0.3 17 +25 +25 комфорт 1008.4 1004.0
16 22.03 Ю 3 н/о н/о +28.0 +1.5 18 +26 +26 жарко 1008.1 1003.7
17 22.03 Ю 2 н/о н/о +25.7 +0.4 19 +24 +24 комфорт 1007.8 1003.4
18 22.03 В 2 н/о н/о +24.5 +0.8 21 +23 +23 комфорт 1008.1 1003.7
19 22.03 В 3 н/о н/о +24.8 +0.3 20 +23 +23 комфорт 1008.3 1003.9
20 22.03 Ю 2 н/о н/о +24.4 0.0 20 +23 +23 комфорт 1008.8 1004.4
21 22.03 В 3 н/о н/о +25.9 +1.2 20 +24 +24 комфорт 1009.1 1004.7
22 22.03 В 2 н/о н/о +28.0 +0.7 17 +26 +26 жарко 1009.4 1005.0
23 22.03 СВ 4 н/о н/о +32.4 +1.5 14 +29 +29 жарко 1010.0 1005.6
00 23.03 С 6 н/о н/о +35.8 +7.8 18 +34 +34 очень
жарко
1010.1 1005.7
01 23.03 СЗ 9 н/о н/о +37.3 +13.3 24 +38 +38 душно 1009.7 1005.3 +23.9
02 23.03 СЗ 8 н/о н/о +38.6 +13.8 23 +39 +39 душно 1009.3 1004.9
03 23.03 С 7 н/о н/о +39.6 +13.2 21 +40 +40 очень
душно
1008.5 1004.1
04 23.03 С 7 н/о 3/0
[]
+39.8 +12.6 20 +39 +39 очень
жарко
1007.7 1003.3
05 23.03 С 5 н/о н/о +40.9 +11.9 18 +40 +40 очень
жарко
1007.1 1002.7
06 23.03 С 5 н/о н/о +40.5 +11.6 18 +40 +40 очень
жарко
1006.4 1002.0
07 23.03 СЗ 5 н/о н/о +39.9 +11.1 18 +39 +39 очень
жарко
1006.1 1001.7
08 23.03 СЗ 3 н/о н/о +38.8 +11.0 19 +38 +38 очень
жарко
1006.3 1001.9
09 23.03 СЗ 3 н/о н/о +37.4 +11.4 21 +37 +37 очень
жарко
1006.9 1002.5
10 23.03 З 4 н/о н/о +35.3 +12.3 25 +35 +35 очень
жарко
1007.8 1003.4
11 23.03 З 3 н/о н/о +33.8 +12.2 27 +34 +34 очень
жарко
1008.5 1004.1
12 23.03 Ю 6 н/о н/о +33.0 +14.6 33 +35 +35 душно 1009.5 1005.1
13 23.03 ЮВ 7 н/о 10/0
[]
+30.8 +17.1 44 +35 +35 очень
душно
1010.3 1005.9 +41.8
14 23.03 Ю 7 н/о н/о +29.9 +16.7 45 +33 +33 душно 1009.5 1005.1
15 23.03 ЮВ 5 н/о н/о +29.7 +16.1 44 +33 +33 душно 1009.2 1004.8
16 23.03 ЮВ 3 н/о н/о +27.7 +16.6 51 +31 +31 душно 1008.9 1004.5
17 23.03 В 5 н/о н/о +27.1 +16.4 52 +31 +31 душно 1008.5 1004.1
18 23.03 В 4 н/о н/о +25.9 +15.9 54 +29 +29 душно 1008.4 1004.0
19 23.03 В 5 н/о н/о +25.8 +14.9 51 +29 +29 душно 1008.7 1004.3
20 23.03 Ю 4 н/о н/о +25.7 +13.9 48 +28 +28 жарко 1009.5 1005.1
21 23.03 Ю 4 н/о н/о +25.4 +15.1 53 +28 +28 жарко 1010.2 1005.8
22 23.03 ЮВ 4 н/о н/о +26.1 +15.2 51 +29 +29 жарко 1010.7 1006.3
23 23.03 ЮВ 5 н/о н/о +29.5 +14.1 39 +31 +31 жарко 1011.0 1006.6
00 24.03 В 6 н/о н/о +32.4 +13.6 32 +34 +34 очень
жарко
1010.7 1006.3

 

Местоположение метеостанции Мумба (Южная Австралия, Австралия): широта -28.10 долгота 140.20 высота над уровнем моря 38 м.

В архиве по умолчанию представлена погода в Мумбе за последнюю неделю. Архивные данные за месяц целиком и за предыдущие месяцы, начиная с января 2011 года, Вы можете получить, выбрав интересующий диапазон дат из раскрывающегося списка и нажав кнопку "Ввод!".


*Определитесь, кто Вы:
робот инопланетянин человек

Внимание! Время в таблицах - всемирное. Для получения местного времени необходимо прибавить поправку, которая равна 9.5 ч.

Смотрите также архив погоды в соседних городах и на ближайших метеорологических станциях:

Погода в Месторождении Ballera (Квинсленд, Австралия) (176 км)
Погода в Тибообере (Новый Южный Уэльс, Австралия) (235 км)
Погода в Бердсвилле (Квинсленд, Австралия) (259 км)
Погода в Марри (Южная Австралия, Австралия) (271 км)
Погода в Ли-Крике (Южная Австралия, Австралия) (327 км)
Погода в Таргоминде (Квинсленд, Австралия) (355 км)
Погода в Фоулерс Гэп (Новый Южный Уэльс, Австралия) (362 км)
Погода в Уафт Клифс (Новый Южный Уэльс, Австралия) (413 км)
Погода в Олимпик Дэм (Южная Австралия, Австралия) (417 км)
Погода в Брокен-Хилле (Новый Южный Уэльс, Австралия) (450 км)

Пояснения к столбцам:

Ветер - указаны скорость ветра в м/с - средняя за 10 мин, порывы в срок и между сроками (в фигурных скобках) и направление, откуда дует ветер: С - северный, СВ - северо-восточный, В - восточный, ЮВ - юго-восточный, Ю - южный, ЮЗ - юго-западный, З - западный, СЗ - северо-западный.
Видимость - горизонтальная дальность видимости в метрах или километрах. При видимости от 1 до 10 км при отсутствии осадков обычно наблюдается дымка, при ухудшении видимости до 1 км и менее - туман. В сухую погоду видимость может ухудшаться дымом, пылью или мглою.
Явления - указаны атмосферные явления, наблюдавшиеся в срок или в последний час перед сроком; фигурными скобками обозначены явления, наблюдавшиеся между сроками (за 1-3 часа до срока); квадратными скобками обозначены град или гололедные отложения с указанием их диаметра в мм.
Облачность - указаны через наклонную черту общая и нижняя облачность в баллах и высота нижней границы облаков в метрах; квадратными скобками обозначены формы облаков: Ci - перистые, Cs - перисто-слоистые, Cc - перисто-кучевые, Ac - высококучевые, As - высокослоистые, Sc - слоисто-кучевые, Ns - слоисто-дождевые, Cu - кучевые, Cb - кучево-дождевые. Подробнее классификацию облаков см. в Атласе облаков (PDF).
T - Температура воздуха - температура, измеренная на высоте 2 м над землей.
Td - Температура точки росы - температура, при понижении до которой содержащийся в воздухе водяной пар достигнет насыщения.
f - Относительная влажность воздуха - влажноcть воздуха, измеренная на высоте 2 м над землей.
Te - Эффективная температура - температура, которую ощущает одетый по сезону человек в тени. Характеристика душности погоды. При расчете учитывается влияние влажности воздуха и скорости ветра на теплоощущения человека.
Tes - Эффективная температура на солнце - температура, которую ощущает человек, с поправкой на солнечный нагрев. Характеристика знойности погоды. Зависит от высоты солнца над горизонтом, облачности и скорости ветра. Ночью, в пасмурную погоду, а также при ветре 12 м/с и более поправка равна нулю.
P - Атмосферное давление - приведенное к уровню моря атмосферное давление.
Po - Атмосферное давление - измеренное на уровне метеостанции атмосферное давление.
Tmin - Минимальная температура - минимум температуры воздуха на высоте 2 м над землей.
Tmax - Максимальная температура - максимум температуры воздуха на высоте 2 м над землей.
R - Количество осадков - Количество выпавших осадков за период времени, мм. При наведении курсора мыши на число - период времени, за который выпало указанное количество осадков.
R24 - Количество осадков - Количество выпавших осадков за 24 часа, мм.
S - Снежный покров - Высота снежного покрова, см. При наведении курсора мыши на число - состояние снежного покрова и степень покрытия местности в баллах.